This is the latest recevied weather packets stored in our database for station/object VK3CG. If no packets are shown the sender has not sent any weather packets the latest 10 day(s).
| Time | Temp. | Humidity | Pressure | Rain* | Wind** | Luminosity | Snow |
|---|---|---|---|---|---|---|---|
| 1777474854 | 7.22° C | 63% | 1038.9 hPa | 0 mm | - | 0 W/m² | - |
| 1777473956 | 7.22° C | 63% | 1039 hPa | 0 mm | - | 0 W/m² | - |
| 1777473056 | 7.78° C | 63% | 1038.9 hPa | 0 mm | - | 0 W/m² | - |
| 1777472149 | 7.78° C | 63% | 1038.9 hPa | 0 mm | - | 0 W/m² | - |
| 1777471246 | 7.78° C | 62% | 1038.9 hPa | 0 mm | - | 0 W/m² | - |
| 1777470400 | 8.33° C | 62% | 1039 hPa | 0 mm | - | 0 W/m² | - |
| 1777469472 | 8.33° C | 62% | 1039.2 hPa | 0 mm | - | 0 W/m² | - |
| 1777468545 | 8.33° C | 62% | 1039.2 hPa | 0 mm | - | 0 W/m² | - |
| 1777467661 | 8.89° C | 62% | 1039.4 hPa | 0 mm | - | 0 W/m² | - |
| 1777466744 | 8.89° C | 62% | 1039.4 hPa | 0 mm | - | 0 W/m² | - |
| 1777465837 | 9.44° C | 61% | 1039.4 hPa | 0 mm | - | 0 W/m² | - |
| 1777464948 | 9.44° C | 61% | 1039.3 hPa | 0 mm | - | 0 W/m² | - |
| 1777464034 | 10° C | 61% | 1039.2 hPa | 0 mm | - | 0 W/m² | - |
| 1777463132 | 10° C | 60% | 1039.2 hPa | 0 mm | - | 0 W/m² | - |
| 1777462232 | 10.56° C | 59% | 1039.1 hPa | 0 mm | - | 0 W/m² | - |
| 1777461335 | 11.11° C | 58% | 1039 hPa | 0 mm | - | 0 W/m² | - |
| 1777460429 | 11.11° C | 58% | 1039.1 hPa | 0 mm | - | 0 W/m² | - |
| 1777459528 | 11.67° C | 57% | 1039.1 hPa | 0 mm | - | 0 W/m² | - |
| 1777458628 | 11.67° C | 56% | 1039 hPa | 0 mm | - | 0 W/m² | - |
| 1777457728 | 12.22° C | 56% | 1038.8 hPa | 0 mm | - | 0 W/m² | - |
| 1777456888 | 12.78° C | 55% | 1038.8 hPa | 0 mm | - | 0 W/m² | - |
| 1777455927 | 13.33° C | 54% | 1038.8 hPa | 0 mm | - | 0 W/m² | - |
| 1777455025 | 13.89° C | 53% | 1038.7 hPa | 0 mm | - | 0 W/m² | - |
| 1777454124 | 14.44° C | 52% | 1038.7 hPa | 0 mm | - | 0 W/m² | - |
| 1777453224 | 14.44° C | 52% | 1038.6 hPa | 0 mm | - | 0 W/m² | - |
* Rain latest hour (hover to see other rain measurements)
** Current wind speed in m/s (hover to see current wind gust speed)